Tracking 33094 objects as of 25-Jan-2026
HD Live streaming from Space Station
objects crossing your sky now

COSMOS 1375 DEB

Track COSMOS 1375 DEB now!
10-day predictions


NORAD ID: 16380
Int'l Code: 1982-055U
Perigee: 989.8 km
Apogee: 1,066.8 km
Inclination: 65.8 °
Period: 105.6 minutes
Semi major axis: 7399 km
RCS: 0.0936 m2 (small)
Launch date: June 6, 1982
Source: Commonwealth of Independent States (former USSR) (CIS)
Launch site: PLESETSK MISSILE AND SPACE COMPLEX (PKMTR)

Note: This is SATELLITE DEBRIS
Your satellite tracking list
Your tracking list is empty




NASA's NSSDC Master Catalog

Two Line Element Set (TLE):
1 16380U 82055U   26025.26364179 -.00000046  00000-0  40199-4 0  9999
2 16380  65.8381   0.8098 0052051 193.5007 271.9962 13.64003714  4980
Source of the keplerian elements: AFSPC